Time,TemperatureF,DewpointF,PressureIn,WindDirection,WindDirectionDegrees,WindSpeedMPH,WindSpeedGustMPH,Humidity,HourlyPrecipIn,Conditions,Clouds,dailyrainin,SolarRadiationWatts/m^2,SoftwareType,DateUTC
2013-03-29 00:03:00,50.0,43.0,-100.00,WNW,302,5.0,-999.0,78,0.00,,,-99.99,0.000000,,2013-03-29 04:03:00,
2013-03-29 00:13:00,50.0,44.0,-100.00,NW,316,5.0,-999.0,78,0.00,,,-99.99,0.000000,,2013-03-29 04:13:00,
2013-03-29 00:23:00,50.0,44.0,-100.00,NW,316,5.0,-999.0,78,0.00,,,-99.99,0.000000,,2013-03-29 04:23:00,
2013-03-29 00:33:00,49.0,43.0,-100.00,NW,322,6.0,-999.0,81,0.00,,,-99.99,0.000000,,2013-03-29 04:33:00,
2013-03-29 00:43:00,49.0,44.0,-100.00,NNW,331,6.0,-999.0,81,0.00,,,-99.99,0.000000,,2013-03-29 04:43:00,
2013-03-29 00:53:00,49.0,44.0,-100.00,NNW,331,6.0,-999.0,81,0.00,,,-99.99,0.000000,,2013-03-29 04:53:00,
2013-03-29 01:03:00,48.0,44.0,-100.00,NNW,334,5.0,-999.0,83,0.00,,,-99.99,0.000000,,2013-03-29 05:03:00,
2013-03-29 01:13:00,49.0,44.0,-100.00,NNW,347,5.0,-999.0,83,0.00,,,-99.99,0.000000,,2013-03-29 05:13:00,
2013-03-29 01:23:00,49.0,44.0,-100.00,NNW,347,5.0,-999.0,83,0.00,,,-99.99,0.000000,,2013-03-29 05:23:00,
2013-03-29 01:33:00,49.0,45.0,-100.00,North,6,5.0,-999.0,84,0.00,,,-99.99,0.000000,,2013-03-29 05:33:00,
2013-03-29 01:43:00,50.0,44.0,-100.00,NNE,13,3.0,-999.0,82,0.00,,,-99.99,0.000000,,2013-03-29 05:43:00,
2013-03-29 01:52:00,50.0,44.0,-100.00,NNE,13,3.0,-999.0,82,0.00,,,-99.99,0.000000,,2013-03-29 05:52:00,
2013-03-29 02:02:00,48.0,43.0,-100.00,NNE,15,4.0,-999.0,82,0.00,,,-99.99,0.000000,,2013-03-29 06:02:00,
2013-03-29 02:12:00,47.0,42.0,-100.00,NNE,16,4.0,-999.0,85,0.00,,,-99.99,0.000000,,2013-03-29 06:12:00,
2013-03-29 02:23:00,47.0,42.0,-100.00,NNE,16,4.0,-999.0,85,0.00,,,-99.99,0.000000,,2013-03-29 06:23:00,
2013-03-29 02:32:00,47.0,43.0,-100.00,North,11,4.0,-999.0,87,0.00,,,-99.99,0.000000,,2013-03-29 06:32:00,
2013-03-29 02:42:00,49.0,44.0,-100.00,North,3,5.0,-999.0,83,0.00,,,-99.99,0.000000,,2013-03-29 06:42:00,
2013-03-29 02:52:00,49.0,44.0,-100.00,North,3,5.0,-999.0,83,0.00,,,-99.99,0.000000,,2013-03-29 06:52:00,
2013-03-29 03:03:00,48.0,43.0,-100.00,North,7,4.0,-999.0,81,0.00,,,-99.99,0.000000,,2013-03-29 07:03:00,
2013-03-29 03:12:00,48.0,43.0,-100.00,NNW,348,4.0,-999.0,81,0.00,,,-99.99,0.000000,,2013-03-29 07:12:00,
2013-03-29 03:22:00,48.0,43.0,-100.00,NNW,348,4.0,-999.0,81,0.00,,,-99.99,0.000000,,2013-03-29 07:22:00,
2013-03-29 03:32:00,47.0,43.0,-100.00,NNW,341,4.0,-999.0,85,0.00,,,-99.99,0.000000,,2013-03-29 07:32:00,
2013-03-29 03:42:00,48.0,44.0,-100.00,North,357,5.0,-999.0,87,0.00,,,-99.99,0.000000,,2013-03-29 07:42:00,
2013-03-29 03:52:00,48.0,44.0,-100.00,North,357,5.0,-999.0,87,0.00,,,-99.99,0.000000,,2013-03-29 07:52:00,
2013-03-29 04:02:00,48.0,44.0,-100.00,North,355,5.0,-999.0,85,0.00,,,-99.99,0.000000,,2013-03-29 08:02:00,
2013-03-29 04:12:00,48.0,44.0,-100.00,North,356,5.0,-999.0,85,0.00,,,-99.99,0.000000,,2013-03-29 08:12:00,
2013-03-29 04:22:00,48.0,44.0,-100.00,North,356,5.0,-999.0,85,0.00,,,-99.99,0.000000,,2013-03-29 08:22:00,
2013-03-29 04:32:00,47.0,44.0,-100.00,North,7,5.0,-999.0,86,0.00,,,-99.99,0.000000,,2013-03-29 08:32:00,
2013-03-29 04:42:00,48.0,44.0,-100.00,North,1,6.0,-999.0,87,0.00,,,-99.99,0.000000,,2013-03-29 08:42:00,
2013-03-29 04:53:00,48.0,44.0,-100.00,North,1,6.0,-999.0,87,0.00,,,-99.99,0.000000,,2013-03-29 08:53:00,
2013-03-29 05:02:00,48.0,44.0,-100.00,North,355,6.0,-999.0,85,0.00,,,-99.99,0.000000,,2013-03-29 09:02:00,
2013-03-29 05:13:00,47.0,43.0,-100.00,North,359,5.0,-999.0,85,0.00,,,-99.99,0.000000,,2013-03-29 09:13:00,
2013-03-29 05:22:00,47.0,43.0,-100.00,North,359,5.0,-999.0,85,0.00,,,-99.99,0.000000,,2013-03-29 09:22:00,
2013-03-29 05:33:00,47.0,43.0,-100.00,North,1,5.0,-999.0,86,0.00,,,-99.99,0.000000,,2013-03-29 09:33:00,
2013-03-29 05:42:00,47.0,43.0,-100.00,North,360,6.0,-999.0,85,0.00,,,-99.99,0.000000,,2013-03-29 09:42:00,
2013-03-29 05:52:00,47.0,43.0,-100.00,North,360,6.0,-999.0,85,0.00,,,-99.99,0.000000,,2013-03-29 09:52:00,
2013-03-29 06:03:00,47.0,43.0,-100.00,North,355,6.0,-999.0,86,0.00,,,-99.99,0.000000,,2013-03-29 10:03:00,
2013-03-29 06:12:00,47.0,43.0,-100.00,North,5,6.0,-999.0,86,0.00,,,-99.99,0.000000,,2013-03-29 10:12:00,
2013-03-29 06:23:00,47.0,43.0,-100.00,North,5,6.0,-999.0,86,0.00,,,-99.99,0.000000,,2013-03-29 10:23:00,
2013-03-29 06:33:00,48.0,44.0,-100.00,North,11,6.0,-999.0,85,0.00,,,-99.99,0.000000,,2013-03-29 10:33:00,
2013-03-29 06:42:00,49.0,44.0,-100.00,North,4,6.0,-999.0,84,0.00,,,-99.99,0.000000,,2013-03-29 10:42:00,
2013-03-29 06:53:00,49.0,44.0,-100.00,North,4,6.0,-999.0,84,0.00,,,-99.99,0.000000,,2013-03-29 10:53:00,
2013-03-29 07:03:00,48.0,44.0,-100.00,North,8,6.0,-999.0,83,0.00,,,-99.99,0.000000,,2013-03-29 11:03:00,
2013-03-29 07:12:00,49.0,44.0,-100.00,NNE,12,6.0,-999.0,84,0.00,,,-99.99,0.000000,,2013-03-29 11:12:00,
2013-03-29 07:23:00,49.0,44.0,-100.00,NNE,12,6.0,-999.0,84,0.00,,,-99.99,0.000000,,2013-03-29 11:23:00,
2013-03-29 07:33:00,49.0,44.0,-100.00,North,7,6.0,-999.0,83,0.00,,,-99.99,0.900000,,2013-03-29 11:33:00,
2013-03-29 07:42:00,49.0,44.0,-100.00,North,7,6.0,-999.0,82,0.00,,,-99.99,7.100000,,2013-03-29 11:42:00,
2013-03-29 07:53:00,49.0,44.0,-100.00,North,7,6.0,-999.0,82,0.00,,,-99.99,7.100000,,2013-03-29 11:53:00,
2013-03-29 08:03:00,50.0,45.0,-100.00,North,7,6.0,-999.0,81,0.00,,,-99.99,25.500000,,2013-03-29 12:03:00,
2013-03-29 08:13:00,51.0,45.0,-100.00,North,5,6.0,-999.0,79,0.00,,,-99.99,74.800003,,2013-03-29 12:13:00,
2013-03-29 08:22:00,51.0,45.0,-100.00,North,5,6.0,-999.0,79,0.00,,,-99.99,74.800003,,2013-03-29 12:22:00,
2013-03-29 08:32:00,53.0,47.0,-100.00,North,7,5.0,-999.0,79,0.00,,,-99.99,125.099998,,2013-03-29 12:32:00,
2013-03-29 08:42:00,55.0,47.0,-100.00,NNE,22,6.0,-999.0,76,0.00,,,-99.99,170.000000,,2013-03-29 12:42:00,
2013-03-29 08:53:00,55.0,47.0,-100.00,NNE,22,6.0,-999.0,76,0.00,,,-99.99,170.000000,,2013-03-29 12:53:00,
2013-03-29 09:03:00,56.0,47.0,-100.00,NNE,29,5.0,-999.0,72,0.00,,,-99.99,227.399994,,2013-03-29 13:03:00,
2013-03-29 09:13:00,58.0,47.0,-100.00,NNE,30,6.0,-999.0,66,0.00,,,-99.99,286.100006,,2013-03-29 13:13:00,
2013-03-29 09:22:00,58.0,47.0,-100.00,NNE,30,6.0,-999.0,66,0.00,,,-99.99,286.100006,,2013-03-29 13:22:00,
2013-03-29 09:32:00,59.0,46.0,-100.00,NE,38,6.0,-999.0,61,0.00,,,-99.99,343.200012,,2013-03-29 13:32:00,
2013-03-29 09:43:00,60.0,45.0,-100.00,NE,40,7.0,-999.0,58,0.00,,,-99.99,388.500000,,2013-03-29 13:43:00,
2013-03-29 09:53:00,60.0,45.0,-100.00,NE,40,7.0,-999.0,58,0.00,,,-99.99,388.500000,,2013-03-29 13:53:00,
2013-03-29 10:03:00,61.0,45.0,-100.00,NE,36,7.0,-999.0,55,0.00,,,-99.99,451.200012,,2013-03-29 14:03:00,
2013-03-29 10:12:00,62.0,45.0,-100.00,NE,46,7.0,-999.0,51,0.00,,,-99.99,500.899994,,2013-03-29 14:12:00,
2013-03-29 10:22:00,62.0,45.0,-100.00,NE,46,7.0,-999.0,51,0.00,,,-99.99,500.899994,,2013-03-29 14:22:00,
2013-03-29 10:32:00,63.0,44.0,-100.00,NE,39,8.0,-999.0,49,0.00,,,-99.99,550.099976,,2013-03-29 14:32:00,
2013-03-29 10:42:00,65.0,42.0,-100.00,NE,40,8.0,-999.0,42,0.00,,,-99.99,601.099976,,2013-03-29 14:42:00,
2013-03-29 10:53:00,65.0,42.0,-100.00,NE,40,8.0,-999.0,42,0.00,,,-99.99,601.099976,,2013-03-29 14:53:00,
2013-03-29 11:02:00,66.0,38.0,-100.00,ENE,59,10.0,-999.0,35,0.00,,,-99.99,447.100006,,2013-03-29 15:02:00,
2013-03-29 11:12:00,66.0,37.0,-100.00,ENE,73,9.0,-999.0,34,0.00,,,-99.99,665.799988,,2013-03-29 15:12:00,
2013-03-29 11:22:00,66.0,37.0,-100.00,ENE,73,9.0,-999.0,34,0.00,,,-99.99,665.799988,,2013-03-29 15:22:00,
2013-03-29 11:33:00,67.0,35.0,-100.00,East,79,9.0,-999.0,30,0.00,,,-99.99,728.000000,,2013-03-29 15:33:00,
2013-03-29 11:43:00,67.0,34.0,-100.00,East,81,10.0,-999.0,29,0.00,,,-99.99,764.000000,,2013-03-29 15:43:00,
2013-03-29 11:53:00,67.0,34.0,-100.00,East,81,10.0,-999.0,29,0.00,,,-99.99,764.000000,,2013-03-29 15:53:00,
2013-03-29 12:03:00,67.0,34.0,-100.00,ENE,58,10.0,-999.0,28,0.00,,,-99.99,796.000000,,2013-03-29 16:03:00,
2013-03-29 12:13:00,68.0,33.0,-100.00,East,82,10.0,-999.0,27,0.00,,,-99.99,823.000000,,2013-03-29 16:13:00,
2013-03-29 12:23:00,68.0,33.0,-100.00,East,82,10.0,-999.0,27,0.00,,,-99.99,823.000000,,2013-03-29 16:23:00,
2013-03-29 12:33:00,68.0,35.0,-100.00,ENE,59,10.0,-999.0,29,0.00,,,-99.99,845.000000,,2013-03-29 16:33:00,
2013-03-29 12:43:00,69.0,36.0,-100.00,NE,54,8.0,-999.0,28,0.00,,,-99.99,866.000000,,2013-03-29 16:43:00,
2013-03-29 12:53:00,69.0,36.0,-100.00,NE,54,8.0,-999.0,28,0.00,,,-99.99,866.000000,,2013-03-29 16:53:00,
2013-03-29 13:03:00,69.0,34.0,-100.00,NE,55,7.0,-999.0,27,0.00,,,-99.99,881.000000,,2013-03-29 17:03:00,
2013-03-29 13:12:00,70.0,33.0,-100.00,ENE,62,8.0,-999.0,25,0.00,,,-99.99,893.000000,,2013-03-29 17:12:00,
2013-03-29 13:22:00,70.0,33.0,-100.00,ENE,62,8.0,-999.0,25,0.00,,,-99.99,893.000000,,2013-03-29 17:22:00,
2013-03-29 13:33:00,70.0,33.0,-100.00,ENE,62,8.0,-999.0,25,0.00,,,-99.99,893.000000,,2013-03-29 17:33:00,
2013-03-29 13:43:00,70.0,32.0,-100.00,ENE,62,7.0,-999.0,24,0.00,,,-99.99,904.000000,,2013-03-29 17:43:00,
2013-03-29 13:53:00,70.0,32.0,-100.00,ENE,62,7.0,-999.0,24,0.00,,,-99.99,904.000000,,2013-03-29 17:53:00,
2013-03-29 14:02:00,70.0,32.0,-100.00,East,85,7.0,-999.0,24,0.00,,,-99.99,902.000000,,2013-03-29 18:02:00,
2013-03-29 14:12:00,70.0,32.0,-100.00,East,96,8.0,-999.0,23,0.00,,,-99.99,895.000000,,2013-03-29 18:12:00,
2013-03-29 14:23:00,70.0,32.0,-100.00,East,96,8.0,-999.0,23,0.00,,,-99.99,895.000000,,2013-03-29 18:23:00,
2013-03-29 14:32:00,71.0,32.0,-100.00,ENE,72,6.0,-999.0,23,0.00,,,-99.99,884.000000,,2013-03-29 18:32:00,
2013-03-29 14:42:00,72.0,32.0,-100.00,ENE,67,6.0,-999.0,23,0.00,,,-99.99,871.000000,,2013-03-29 18:42:00,
2013-03-29 14:53:00,72.0,32.0,-100.00,ENE,67,6.0,-999.0,23,0.00,,,-99.99,871.000000,,2013-03-29 18:53:00,
2013-03-29 15:02:00,72.0,32.0,-100.00,East,80,7.0,-999.0,23,0.00,,,-99.99,852.000000,,2013-03-29 19:02:00,
2013-03-29 15:12:00,72.0,32.0,-100.00,NE,46,6.0,-999.0,23,0.00,,,-99.99,830.000000,,2013-03-29 19:12:00,
2013-03-29 15:23:00,72.0,32.0,-100.00,NE,46,6.0,-999.0,23,0.00,,,-99.99,830.000000,,2013-03-29 19:23:00,
2013-03-29 15:32:00,72.0,32.0,-100.00,ENE,72,6.0,-999.0,22,0.00,,,-99.99,805.000000,,2013-03-29 19:32:00,
2013-03-29 15:43:00,73.0,32.0,-100.00,ESE,109,4.0,-999.0,22,0.00,,,-99.99,775.000000,,2013-03-29 19:43:00,
2013-03-29 15:53:00,73.0,32.0,-100.00,ESE,109,4.0,-999.0,22,0.00,,,-99.99,775.000000,,2013-03-29 19:53:00,
2013-03-29 16:02:00,74.0,33.0,-100.00,NW,309,4.0,-999.0,22,0.00,,,-99.99,745.000000,,2013-03-29 20:02:00,
2013-03-29 16:12:00,74.0,32.0,-100.00,ENE,75,5.0,-999.0,21,0.00,,,-99.99,705.000000,,2013-03-29 20:12:00,
2013-03-29 16:22:00,74.0,32.0,-100.00,ENE,75,5.0,-999.0,21,0.00,,,-99.99,705.000000,,2013-03-29 20:22:00,
2013-03-29 16:33:00,73.0,31.0,-100.00,NE,52,6.0,-999.0,21,0.00,,,-99.99,665.700012,,2013-03-29 20:33:00,
2013-03-29 16:42:00,73.0,31.0,-100.00,ENE,69,5.0,-999.0,21,0.00,,,-99.99,624.400024,,2013-03-29 20:42:00,
2013-03-29 16:52:00,73.0,31.0,-100.00,ENE,69,5.0,-999.0,21,0.00,,,-99.99,624.400024,,2013-03-29 20:52:00,
2013-03-29 17:02:00,73.0,32.0,-100.00,NE,34,4.0,-999.0,21,0.00,,,-99.99,578.200012,,2013-03-29 21:02:00,
2013-03-29 17:12:00,74.0,32.0,-100.00,ENE,57,5.0,-999.0,21,0.00,,,-99.99,531.400024,,2013-03-29 21:12:00,
2013-03-29 17:22:00,74.0,32.0,-100.00,ENE,57,5.0,-999.0,21,0.00,,,-99.99,531.400024,,2013-03-29 21:22:00,
2013-03-29 17:33:00,74.0,32.0,-100.00,NE,49,4.0,-999.0,21,0.00,,,-99.99,480.500000,,2013-03-29 21:33:00,
2013-03-29 17:43:00,73.0,32.0,-100.00,ESE,107,7.0,-999.0,22,0.00,,,-99.99,429.000000,,2013-03-29 21:43:00,
2013-03-29 17:53:00,73.0,32.0,-100.00,ESE,107,7.0,-999.0,22,0.00,,,-99.99,429.000000,,2013-03-29 21:53:00,
2013-03-29 18:03:00,73.0,32.0,-100.00,ENE,74,4.0,-999.0,22,0.00,,,-99.99,375.799988,,2013-03-29 22:03:00,
2013-03-29 18:12:00,72.0,32.0,-100.00,East,89,5.0,-999.0,22,0.00,,,-99.99,322.299988,,2013-03-29 22:12:00,
2013-03-29 18:23:00,72.0,32.0,-100.00,East,89,5.0,-999.0,22,0.00,,,-99.99,322.299988,,2013-03-29 22:23:00,
2013-03-29 18:33:00,72.0,32.0,-100.00,East,89,4.0,-999.0,22,0.00,,,-99.99,268.399994,,2013-03-29 22:33:00,
2013-03-29 18:42:00,72.0,32.0,-100.00,East,99,6.0,-999.0,22,0.00,,,-99.99,215.500000,,2013-03-29 22:42:00,
2013-03-29 18:54:00,72.0,32.0,-100.00,East,99,6.0,-999.0,22,0.00,,,-99.99,215.500000,,2013-03-29 22:54:00,
2013-03-29 19:03:00,72.0,32.0,-100.00,East,88,5.0,-999.0,22,0.00,,,-99.99,158.600006,,2013-03-29 23:03:00,
2013-03-29 19:12:00,71.0,32.0,-100.00,NE,43,4.0,-999.0,23,0.00,,,-99.99,39.900002,,2013-03-29 23:12:00,
2013-03-29 19:22:00,71.0,32.0,-100.00,NE,43,4.0,-999.0,23,0.00,,,-99.99,39.900002,,2013-03-29 23:22:00,
2013-03-29 19:32:00,70.0,32.0,-100.00,ENE,70,3.0,-999.0,24,0.00,,,-99.99,29.000000,,2013-03-29 23:32:00,
2013-03-29 19:42:00,68.0,34.0,-100.00,ENE,78,3.0,-999.0,27,0.00,,,-99.99,18.500000,,2013-03-29 23:42:00,
2013-03-29 19:53:00,68.0,34.0,-100.00,ENE,78,3.0,-999.0,27,0.00,,,-99.99,18.500000,,2013-03-29 23:53:00,
2013-03-29 20:03:00,66.0,36.0,-100.00,ENE,68,3.0,-999.0,32,0.00,,,-99.99,7.200000,,2013-03-30 00:03:00,
2013-03-29 20:12:00,63.0,38.0,-100.00,ENE,70,3.0,-999.0,38,0.00,,,-99.99,0.900000,,2013-03-30 00:12:00,
2013-03-29 20:22:00,63.0,38.0,-100.00,ENE,70,3.0,-999.0,38,0.00,,,-99.99,0.900000,,2013-03-30 00:22:00,
2013-03-29 20:32:00,62.0,38.0,-100.00,NE,37,3.0,-999.0,41,0.00,,,-99.99,0.000000,,2013-03-30 00:32:00,
2013-03-29 20:42:00,58.0,41.0,-100.00,NE,48,2.0,-999.0,54,0.00,,,-99.99,0.000000,,2013-03-30 00:42:00,
2013-03-29 20:53:00,58.0,41.0,-100.00,NE,48,2.0,-999.0,54,0.00,,,-99.99,0.000000,,2013-03-30 00:53:00,
2013-03-29 21:02:00,57.0,42.0,-100.00,ENE,71,5.0,-999.0,55,0.00,,,-99.99,0.000000,,2013-03-30 01:02:00,
2013-03-29 21:13:00,62.0,41.0,-100.00,East,91,6.0,-999.0,46,0.00,,,-99.99,0.000000,,2013-03-30 01:13:00,
2013-03-29 21:22:00,62.0,41.0,-100.00,East,91,6.0,-999.0,46,0.00,,,-99.99,0.000000,,2013-03-30 01:22:00,
2013-03-29 21:33:00,61.0,42.0,-100.00,ESE,102,5.0,-999.0,49,0.00,,,-99.99,0.000000,,2013-03-30 01:33:00,
2013-03-29 21:43:00,61.0,42.0,-100.00,ESE,102,5.0,-999.0,49,0.00,,,-99.99,0.000000,,2013-03-30 01:43:00,
2013-03-29 21:53:00,60.0,43.0,-100.00,East,99,4.0,-999.0,52,0.00,,,-99.99,0.000000,,2013-03-30 01:53:00,
2013-03-29 22:03:00,59.0,42.0,-100.00,East,93,4.0,-999.0,53,0.00,,,-99.99,0.000000,,2013-03-30 02:03:00,
2013-03-29 22:12:00,58.0,43.0,-100.00,East,97,4.0,-999.0,55,0.00,,,-99.99,0.000000,,2013-03-30 02:12:00,
2013-03-29 22:22:00,58.0,43.0,-100.00,East,97,4.0,-999.0,55,0.00,,,-99.99,0.000000,,2013-03-30 02:22:00,
2013-03-29 22:33:00,57.0,42.0,-100.00,East,87,3.0,-999.0,58,0.00,,,-99.99,0.000000,,2013-03-30 02:33:00,
2013-03-29 22:43:00,56.0,43.0,-100.00,East,89,4.0,-999.0,60,0.00,,,-99.99,0.000000,,2013-03-30 02:43:00,
2013-03-29 22:53:00,56.0,43.0,-100.00,East,89,4.0,-999.0,60,0.00,,,-99.99,0.000000,,2013-03-30 02:53:00,
2013-03-29 23:03:00,56.0,43.0,-100.00,East,94,4.0,-999.0,61,0.00,,,-99.99,0.000000,,2013-03-30 03:03:00,
2013-03-29 23:12:00,56.0,44.0,-100.00,ESE,104,4.0,-999.0,62,0.00,,,-99.99,0.000000,,2013-03-30 03:12:00,
2013-03-29 23:22:00,56.0,44.0,-100.00,ESE,104,4.0,-999.0,62,0.00,,,-99.99,0.000000,,2013-03-30 03:22:00,
2013-03-29 23:33:00,56.0,44.0,-100.00,ESE,105,4.0,-999.0,64,0.00,,,-99.99,0.000000,,2013-03-30 03:33:00,
2013-03-29 23:43:00,56.0,45.0,-100.00,ESE,107,4.0,-999.0,66,0.00,,,-99.99,0.000000,,2013-03-30 03:43:00,
2013-03-29 23:53:00,56.0,45.0,-100.00,ESE,107,4.0,-999.0,66,0.00,,,-99.99,0.000000,,2013-03-30 03:53:00,